TimeEDT,TemperatureF,Dew PointF,Humidity,Sea Level PressureIn,VisibilityMPH,Wind Direction,Wind SpeedMPH,Gust SpeedMPH,PrecipitationIn,Events,Conditions,WindDirDegrees,DateUTC
12:53 AM,57.9,55.9,93,30.34,9.0,Calm,Calm,-,N/A,,Clear,0,2012-09-13 04:53:00
1:53 AM,57.0,55.0,93,30.34,7.0,Calm,Calm,-,N/A,,Clear,0,2012-09-13 05:53:00
2:53 AM,57.0,55.0,93,30.34,9.0,Calm,Calm,-,N/A,,Clear,0,2012-09-13 06:53:00
3:53 AM,55.9,55.0,97,30.33,7.0,Calm,Calm,-,N/A,,Clear,0,2012-09-13 07:53:00
4:53 AM,54.0,52.0,93,30.34,5.0,Calm,Calm,-,N/A,,Clear,0,2012-09-13 08:53:00
5:53 AM,54.0,51.1,90,30.35,7.0,Calm,Calm,-,N/A,,Clear,0,2012-09-13 09:53:00
6:53 AM,53.1,50.0,89,30.36,10.0,Calm,Calm,-,N/A,,Clear,0,2012-09-13 10:53:00
7:53 AM,55.0,52.0,89,30.37,8.0,Calm,Calm,-,N/A,,Clear,0,2012-09-13 11:53:00
8:53 AM,59.0,55.0,87,30.37,9.0,Calm,Calm,-,N/A,,Clear,0,2012-09-13 12:53:00
9:53 AM,64.9,57.0,75,30.38,10.0,Calm,Calm,-,N/A,,Clear,0,2012-09-13 13:53:00
10:53 AM,70.0,57.9,65,30.38,10.0,Calm,Calm,-,N/A,,Clear,0,2012-09-13 14:53:00
11:53 AM,73.9,55.9,53,30.38,10.0,Calm,Calm,-,N/A,,Clear,0,2012-09-13 15:53:00
12:53 PM,77.0,53.1,43,30.35,10.0,Variable,4.6,-,N/A,,Clear,0,2012-09-13 16:53:00
1:53 PM,77.0,52.0,42,30.33,10.0,SSW,4.6,-,N/A,,Clear,210,2012-09-13 17:53:00
2:53 PM,78.1,51.1,39,30.31,10.0,South,11.5,-,N/A,,Clear,190,2012-09-13 18:53:00
3:38 PM,78.8,48.2,34,30.31,10.0,South,11.5,-,N/A,,Clear,190,2012-09-13 19:38:00
3:53 PM,79.0,46.9,32,30.29,10.0,South,11.5,-,N/A,,Clear,190,2012-09-13 19:53:00
4:53 PM,79.0,50.0,36,30.28,10.0,South,5.8,-,N/A,,Clear,170,2012-09-13 20:53:00
5:53 PM,77.0,51.1,40,30.27,10.0,South,4.6,-,N/A,,Clear,180,2012-09-13 21:53:00
6:53 PM,73.0,53.1,49,30.27,10.0,SSE,4.6,-,N/A,,Clear,150,2012-09-13 22:53:00
7:53 PM,70.0,53.1,55,30.28,10.0,SSE,3.5,-,N/A,,Clear,160,2012-09-13 23:53:00
8:53 PM,66.9,54.0,63,30.28,10.0,Calm,Calm,-,N/A,,Clear,0,2012-09-14 00:53:00
9:53 PM,60.1,55.0,83,30.28,10.0,Calm,Calm,-,N/A,,Clear,0,2012-09-14 01:53:00
10:53 PM,60.1,55.9,86,30.29,10.0,Calm,Calm,-,N/A,,Clear,0,2012-09-14 02:53:00
11:53 PM,55.9,53.1,90,30.29,10.0,Calm,Calm,-,N/A,,Clear,0,2012-09-14 03:53:00